[[{"header":{"parameterUnit":"m.s-1","parameterCategory":1,"la1":30.2991,"la2":30.254,"lo1":-89.0895,"lo2":-89.0444,"dy":0.0017,"dx":0.0017,"nx":28,"ny":28,"refTime":"2024-10-13T09:00:00:Z","depth":0,"parameterNumber":2,"parameterNumberName":"U-component_of_WINDS"},"data":[0,0,0,0,0,0,0,0,0,0,0,0,0,0,0,0,0,0,0,0,0,0,0,0,0,0,0,0,0,0,0,0,0,0,0,0,0,0,0,0,0,0,0,0,0,0,0,0,0,0,0,0,0,0,0,0,0,0,1.1267,1.1267,0,1.1255,1.1255,1.1254,1.1162,1.1159,1.1157,1.1155,1.1144,1.1146,1.1148,0,0,0,0,0,0,0,0,0,0,0,0,0,1.1211,1.1212,1.1267,1.1267,1.1266,1.1255,1.1255,1.1254,1.1162,1.1159,1.1156,1.1154,1.1143,1.1146,1.1148,0,0,0,0,0,0,0,0,0,0,0,0,0,1.1221,1.1213,1.1267,1.1219,1.1214,1.1255,1.1255,1.1254,1.1163,1.1159,1.1156,1.1153,1.1143,1.1145,1.1148,1.1234,0,0,1.1157,1.1158,0,0,0,0,0,0,0,0,1.122,1.1223,1.1226,1.1222,1.1217,1.1206,1.1231,1.1248,1.1163,1.1182,1.1155,1.1151,1.1168,1.1168,1.1173,1.1234,1.1233,1.1157,1.1159,1.116,1.1161,0,0,0,0,0,0,0,1.122,1.1223,1.1262,1.1226,1.1221,1.1198,1.1196,1.1234,1.1194,1.118,1.1174,1.1173,1.1165,1.1171,1.1173,1.1233,1.1157,1.1159,1.1161,1.1162,1.1363,1.1367,0,0,0,0,0,0,1.1225,1.1223,1.1262,1.1262,1.121,1.1202,1.1199,1.1213,1.1194,1.1187,1.1176,1.1169,1.1168,1.1169,1.1172,1.1271,1.116,1.1162,1.1164,1.136,1.1364,1.1368,0,0,0,0,0,0,1.1224,1.123,1.1263,1.124,1.1243,1.1207,1.1223,1.1215,1.1221,1.1191,1.1183,1.119,1.1165,1.1168,1.1219,1.127,1.1164,1.1166,1.1355,1.1361,1.1366,1.1471,0,0,0,0,0,0,1.1223,1.123,1.1262,1.1242,1.1244,1.131,1.1226,1.1217,1.1226,1.1216,1.1202,1.1196,1.1163,1.1216,1.1222,1.1271,1.1168,1.1351,1.1358,1.1364,1.1463,1.1479,1.1493,0,0,0,0,0,1.1222,1.1292,1.1264,1.1269,1.1283,1.1313,1.1315,1.1275,1.123,1.1262,1.1243,1.1196,1.1263,1.1222,1.1228,1.1279,1.1347,1.1356,1.1364,1.1456,1.1476,1.1493,0,0,0,0,0,0,1.132,1.1289,1.1257,1.1323,1.1322,1.1298,1.1337,1.1298,1.1309,1.13,1.125,1.1248,1.1307,1.1298,1.1252,1.1361,1.1297,1.1307,1.1365,1.1384,1.1399,1.14,1.1171,0,0,0,0,0,1.1349,1.1375,1.1347,1.1408,1.1409,1.1373,1.1385,1.1354,1.1351,1.135,1.1334,1.1333,1.1353,1.1368,1.1385,1.1461,1.1457,1.1499,1.1515,1.1527,1.1537,1.1576,1.1595,1.1395,1.1395,1.1395,0,0,1.141,1.1396,1.1416,1.1427,1.1423,1.1452,1.1373,1.1407,1.1428,1.1355,1.1402,1.1391,1.1387,1.1451,1.1478,1.1445,1.1591,1.1538,1.1548,1.1551,1.1587,1.1606,1.1623,1.1401,1.14,1.1399,0,0,1.1535,1.1528,1.1578,1.1574,1.1568,1.1544,1.1556,1.1538,1.1528,1.1575,1.152,1.1545,1.1581,1.158,1.1585,1.1711,1.1668,1.1718,1.1798,1.1837,1.1853,1.1867,1.1912,1.1929,1.1727,1.1727,1.1727,0,1.1612,1.1653,1.1608,1.1646,1.1653,1.1588,1.1638,1.1637,1.1637,1.1644,1.1607,1.1651,1.1644,1.1707,1.1738,1.1743,1.1756,1.1719,1.1854,1.1868,1.188,1.1922,1.1939,1.1733,1.1733,1.1732,1.1731,0,1.1747,1.1777,1.1818,1.1819,1.1831,1.1875,1.1838,1.1855,1.1824,1.1804,1.1852,1.1841,1.1855,1.1868,1.1837,1.1927,1.1906,1.1863,1.1797,1.1906,1.1945,1.1961,1.1742,1.174,1.1738,1.1737,0,0,1.1934,1.191,1.1926,1.1926,1.1915,1.1937,1.1978,1.1991,1.2007,1.201,1.2043,1.2076,1.2035,1.204,1.201,1.2044,1.2145,1.1996,1.1995,1.2024,1.2243,1.2276,1.2296,1.2117,1.212,1.2122,1.2243,0,1.2055,1.2124,1.2085,1.216,1.2186,1.2125,1.2161,1.2158,1.2141,1.2161,1.2142,1.2166,1.2111,1.2114,1.2145,1.2126,1.2188,1.2117,1.2148,1.215,1.2151,1.2316,1.2351,1.2466,1.2258,1.2261,1.2263,0,1.2205,1.2213,1.2291,1.2274,1.2284,1.2317,1.2326,1.2347,1.2342,1.2327,1.2333,1.2294,1.2334,1.227,1.2324,1.2276,1.2287,1.228,1.2283,1.2284,1.2213,1.2322,1.2501,1.2519,1.2286,1.2285,1.2283,0,1.2334,1.2365,1.2414,1.2416,1.2398,1.2423,1.2417,1.2409,1.242,1.2428,1.2434,1.2448,1.2455,1.2466,1.2432,1.2388,1.2491,1.2424,1.248,1.2481,1.2505,1.2504,1.2689,1.2512,1.2512,1.2511,1.2511,0,1.2473,1.2522,1.2472,1.2503,1.2557,1.2513,1.2567,1.2555,1.2548,1.2576,1.2524,1.2551,1.2504,1.2527,1.25,1.255,1.2553,1.2543,1.2535,1.2547,1.2549,1.2553,1.2544,1.2516,1.2515,1.2514,1.2513,0,1.2625,1.2594,1.2644,1.2623,1.2619,1.266,1.2642,1.267,1.2649,1.2685,1.2691,1.2658,1.2682,1.2649,1.267,1.2652,1.272,1.27,1.2721,1.2716,1.2774,1.2769,1.2968,1.2992,1.2801,1.2803,1.2804,0,1.2716,1.2753,1.2736,1.275,1.2747,1.2771,1.2781,1.274,1.2753,1.2751,1.2779,1.2799,1.2812,1.2854,1.2832,1.2848,1.2828,1.2897,1.283,1.2841,1.2829,1.2827,1.2831,1.2911,1.2913,1.2915,1.2916,0,1.288,1.2863,1.288,1.2892,1.2906,1.2913,1.2916,1.2932,1.2887,1.2905,1.2929,1.2939,1.296,1.2981,1.2991,1.2984,1.2944,1.2938,1.2951,1.2964,1.2975,1.297,1.2759,1.2933,1.2931,1.293,1.2929,1.2929,1.3004,1.3034,1.3027,1.3048,1.3046,1.3051,1.3076,1.3058,1.3077,1.3091,1.3065,1.3095,1.309,1.31,1.3098,1.3122,1.3092,1.3112,1.3117,1.3123,1.3132,1.2972,1.3124,1.3123,1.3123,1.3122,1.3122,0,1.3166,1.3158,1.3178,1.3184,1.3201,1.316,1.3162,1.3179,1.3206,1.3205,1.3219,1.3247,1.3266,1.3247,1.3262,1.3285,1.3267,1.3291,1.3288,1.3288,1.3158,1.3144,1.3305,1.3305,1.3305,1.3305,1.3305,1.3305,1.3252,1.33,1.3282,1.3329,1.3321,1.335,1.3355,1.3359,1.3358,1.3391,1.3406,1.3393,1.3385,1.34,1.3416,1.341,1.3418,1.3449,1.3436,1.3315,1.3297,1.328,1.3267,1.3451,1.3451,1.3564,1.3565,1.3566]},{"header":{"parameterUnit":"m.s-1","parameterCategory":1,"la1":30.2991,"la2":30.254,"lo1":-89.0895,"lo2":-89.0444,"dy":0.0017,"dx":0.0017,"nx":28,"ny":28,"refTime":"2024-10-13T09:00:00:Z","depth":0,"parameterNumber":3,"parameterNumberName":"V-component_of_WINDS"},"data":[0,0,0,0,0,0,0,0,0,0,0,0,0,0,0,0,0,0,0,0,0,0,0,0,0,0,0,0,0,0,0,0,0,0,0,0,0,0,0,0,0,0,0,0,0,0,0,0,0,0,0,0,0,0,0,0,0,0,-0.7825,-0.7825,0,-0.7844,-0.7845,-0.7845,-0.7851,-0.7851,-0.7851,-0.7851,-0.7871,-0.7872,-0.7873,0,0,0,0,0,0,0,0,0,0,0,0,0,-0.7795,-0.7795,-0.7825,-0.7825,-0.7825,-0.7844,-0.7845,-0.7845,-0.7851,-0.7851,-0.7851,-0.7851,-0.7871,-0.7872,-0.7873,0,0,0,0,0,0,0,0,0,0,0,0,0,-0.781,-0.7796,-0.7825,-0.7831,-0.7831,-0.7844,-0.7845,-0.7845,-0.7851,-0.7851,-0.7851,-0.7851,-0.7871,-0.7872,-0.7873,-0.7881,0,0,-0.7876,-0.7876,0,0,0,0,0,0,0,0,-0.781,-0.7812,-0.783,-0.783,-0.7831,-0.7845,-0.7842,-0.7857,-0.7851,-0.7844,-0.7851,-0.7851,-0.7863,-0.7864,-0.7868,-0.7882,-0.7883,-0.7876,-0.7876,-0.7877,-0.7877,0,0,0,0,0,0,0,-0.7808,-0.7811,-0.7833,-0.783,-0.7831,-0.7833,-0.7835,-0.7845,-0.7854,-0.7844,-0.7845,-0.7847,-0.7863,-0.7867,-0.7869,-0.7883,-0.7876,-0.7876,-0.7877,-0.7877,-0.7907,-0.7907,0,0,0,0,0,0,-0.7806,-0.781,-0.7832,-0.7833,-0.782,-0.7834,-0.7836,-0.7841,-0.7854,-0.7855,-0.7847,-0.7847,-0.7866,-0.7868,-0.787,-0.7881,-0.7877,-0.7878,-0.7878,-0.7906,-0.7907,-0.7907,0,0,0,0,0,0,-0.7806,-0.7808,-0.7831,-0.7822,-0.7825,-0.7834,-0.784,-0.7841,-0.7845,-0.7856,-0.7858,-0.785,-0.7866,-0.7868,-0.7879,-0.7882,-0.7878,-0.7879,-0.7906,-0.7906,-0.7907,-0.7903,0,0,0,0,0,0,-0.7805,-0.7808,-0.7811,-0.7822,-0.7825,-0.7839,-0.784,-0.7842,-0.7847,-0.7847,-0.7859,-0.786,-0.7866,-0.7877,-0.7879,-0.7883,-0.788,-0.7906,-0.7906,-0.7907,-0.7903,-0.7904,-0.7904,0,0,0,0,0,-0.7804,-0.7809,-0.7811,-0.7814,-0.7829,-0.7839,-0.7842,-0.7848,-0.7847,-0.7851,-0.7857,-0.786,-0.7881,-0.7878,-0.7881,-0.7885,-0.7906,-0.7906,-0.7907,-0.7903,-0.7904,-0.7904,0,0,0,0,0,0,-0.7798,-0.7811,-0.7813,-0.7822,-0.783,-0.784,-0.7845,-0.7848,-0.7856,-0.7856,-0.7863,-0.7866,-0.7876,-0.7881,-0.7878,-0.7894,-0.7894,-0.7895,-0.789,-0.7891,-0.7891,-0.7889,-0.788,0,0,0,0,0,-0.7798,-0.7805,-0.7816,-0.7823,-0.7827,-0.7835,-0.784,-0.7844,-0.7852,-0.7856,-0.7863,-0.7872,-0.788,-0.7886,-0.7894,-0.7904,-0.7907,-0.7909,-0.7909,-0.7909,-0.791,-0.7916,-0.7917,-0.7908,-0.7908,-0.7908,0,0,-0.7798,-0.7805,-0.7809,-0.7822,-0.7828,-0.7836,-0.7838,-0.7846,-0.7852,-0.7857,-0.7867,-0.7873,-0.7883,-0.7894,-0.7899,-0.7898,-0.7913,-0.791,-0.791,-0.791,-0.7917,-0.7918,-0.7918,-0.7909,-0.7909,-0.7909,0,0,-0.7801,-0.7808,-0.7814,-0.7821,-0.7831,-0.7837,-0.7839,-0.7849,-0.7853,-0.7864,-0.7868,-0.7876,-0.789,-0.7898,-0.7903,-0.7911,-0.7914,-0.7913,-0.7915,-0.7921,-0.7922,-0.7922,-0.7925,-0.7926,-0.7914,-0.7914,-0.7914,0,-0.78,-0.7811,-0.7818,-0.7826,-0.7831,-0.7837,-0.7844,-0.785,-0.7863,-0.7867,-0.7867,-0.7886,-0.7893,-0.7905,-0.7907,-0.7911,-0.7914,-0.7912,-0.7921,-0.7922,-0.7923,-0.7925,-0.7927,-0.7914,-0.7914,-0.7914,-0.7914,0,-0.7809,-0.7817,-0.7821,-0.7833,-0.7839,-0.7847,-0.7855,-0.7861,-0.7865,-0.7871,-0.7882,-0.7891,-0.7902,-0.7905,-0.7909,-0.7918,-0.7918,-0.7919,-0.7919,-0.7923,-0.7926,-0.7927,-0.7914,-0.7914,-0.7914,-0.7914,0,0,-0.7809,-0.7825,-0.7826,-0.7832,-0.7844,-0.785,-0.7859,-0.7869,-0.7874,-0.7883,-0.789,-0.7903,-0.7905,-0.7911,-0.7916,-0.7921,-0.7928,-0.7922,-0.7923,-0.7923,-0.7939,-0.7938,-0.7939,-0.793,-0.793,-0.793,-0.7939,0,-0.7814,-0.7828,-0.7835,-0.7847,-0.7855,-0.7861,-0.7868,-0.7876,-0.7883,-0.7891,-0.7898,-0.7907,-0.7908,-0.7912,-0.7918,-0.7925,-0.7931,-0.7925,-0.7937,-0.7938,-0.7934,-0.7941,-0.7939,-0.7946,-0.794,-0.794,-0.794,0,-0.7821,-0.783,-0.7842,-0.7854,-0.7858,-0.7864,-0.7875,-0.7882,-0.7892,-0.7897,-0.7904,-0.7909,-0.7919,-0.7918,-0.7932,-0.7928,-0.7934,-0.7938,-0.7939,-0.794,-0.7939,-0.7942,-0.7949,-0.795,-0.7942,-0.7942,-0.7942,0,-0.782,-0.7835,-0.7845,-0.7849,-0.7863,-0.7868,-0.7874,-0.7884,-0.789,-0.79,-0.7904,-0.7914,-0.792,-0.7929,-0.7937,-0.7935,-0.795,-0.795,-0.7954,-0.7954,-0.7957,-0.7956,-0.7965,-0.7961,-0.7961,-0.7961,-0.7961,0,-0.7825,-0.7832,-0.7844,-0.785,-0.7859,-0.7867,-0.7876,-0.7883,-0.7892,-0.7899,-0.7906,-0.7913,-0.7923,-0.7932,-0.7939,-0.7949,-0.7952,-0.7956,-0.7958,-0.7955,-0.7955,-0.7959,-0.7959,-0.7961,-0.7961,-0.7961,-0.7961,0,-0.7825,-0.7833,-0.7844,-0.7856,-0.786,-0.7866,-0.7877,-0.7883,-0.789,-0.79,-0.7903,-0.7914,-0.7925,-0.7934,-0.7948,-0.7952,-0.7964,-0.7966,-0.796,-0.7961,-0.7965,-0.7964,-0.7976,-0.7978,-0.7972,-0.7972,-0.7972,0,-0.7827,-0.7833,-0.7846,-0.7852,-0.7858,-0.7867,-0.7873,-0.7882,-0.7888,-0.7901,-0.7906,-0.7917,-0.7927,-0.7944,-0.7953,-0.7965,-0.7967,-0.797,-0.7969,-0.7966,-0.7967,-0.7967,-0.7967,-0.797,-0.797,-0.797,-0.797,0,-0.783,-0.7835,-0.7843,-0.7854,-0.7861,-0.787,-0.7879,-0.7883,-0.7894,-0.7901,-0.7912,-0.792,-0.7934,-0.7946,-0.7958,-0.7965,-0.797,-0.7971,-0.7972,-0.797,-0.7967,-0.7969,-0.796,-0.797,-0.797,-0.797,-0.797,-0.797,-0.7832,-0.7838,-0.7848,-0.7858,-0.7866,-0.7874,-0.7881,-0.7889,-0.7898,-0.791,-0.7915,-0.7927,-0.7938,-0.7955,-0.7962,-0.7972,-0.7973,-0.7975,-0.7975,-0.7976,-0.7976,-0.7965,-0.7974,-0.7974,-0.7974,-0.7974,-0.7974,0,-0.7836,-0.7843,-0.7852,-0.7864,-0.7872,-0.7876,-0.7886,-0.7893,-0.7903,-0.7913,-0.7922,-0.7935,-0.7947,-0.7957,-0.7969,-0.7975,-0.7978,-0.7978,-0.7978,-0.7979,-0.7974,-0.7972,-0.7976,-0.7976,-0.7976,-0.7976,-0.7976,-0.7976,-0.7839,-0.7849,-0.7854,-0.7869,-0.7876,-0.7887,-0.7893,-0.7901,-0.7909,-0.7923,-0.7933,-0.794,-0.795,-0.7963,-0.7974,-0.7977,-0.7981,-0.7981,-0.7985,-0.798,-0.7979,-0.7979,-0.7977,-0.7982,-0.7982,-0.7989,-0.7989,-0.7989]}]]